Location: Atherton
(17.2661°S, 145.4859°E)
Time: 11:32:21
(UTC+10:00)

Vanguard 1 - Pass Details

Date: 02 July 2025
Orbit: 649 x 3822 km, 34.2° (Epoch: 05 July)

Event Time Altitude Azimuth Distance (km) Brightness Sun altitude
Rises 15:55:07 0° 305° (NW) 7,685 16.1 24.2°
Reaches altitude 10° 16:00:05 10° 305° (NW) 6,819 16.5 23.2°
Maximum altitude 16:24:05 89° 213° (SSW) 3,499 13.2 18.5°
Drops below altitude 10° 16:41:20 10° 122° (ESE) 5,178 13.2 15.0°
Sets 16:44:31 0° 121° (ESE) 5,851 13.4 14.3°
